TimePDT,TemperatureF,Dew PointF,Humidity,Sea Level PressureIn,VisibilityMPH,Wind Direction,Wind SpeedMPH,Gust SpeedMPH,PrecipitationIn,Events,Conditions,WindDirDegrees,DateUTC
12:58 AM,38.8,35.1,86,29.96,10.0,West,2.3,-,N/A,,Clear,280,2013-05-24 07:58:00
1:58 AM,37.6,32.7,83,29.96,10.0,SSW,1.2,-,N/A,,Clear,200,2013-05-24 08:58:00
2:58 AM,38.5,33.3,81,29.96,10.0,NNE,5.8,-,N/A,,Clear,30,2013-05-24 09:58:00
3:58 AM,37.6,33.8,86,29.96,10.0,NE,2.3,-,N/A,,Clear,40,2013-05-24 10:58:00
4:50 AM,37.4,33.8,87,29.93,10.0,NNW,3.5,-,N/A,,Clear,340,2013-05-24 11:50:00
4:58 AM,37.2,34.2,89,29.96,10.0,NNW,3.5,-,0.00,,Clear,340,2013-05-24 11:58:00
5:05 AM,37.4,35.6,93,29.93,10.0,NNW,4.6,-,N/A,,Clear,330,2013-05-24 12:05:00
5:58 AM,35.6,33.8,93,29.96,10.0,East,1.2,-,0.00,,Clear,80,2013-05-24 12:58:00
6:05 AM,35.6,33.8,93,29.94,10.0,ESE,2.3,-,N/A,,Clear,120,2013-05-24 13:05:00
6:37 AM,39.2,37.4,93,29.95,10.0,ENE,5.8,-,N/A,,Clear,60,2013-05-24 13:37:00
6:58 AM,41.2,37.9,88,29.98,10.0,East,4.6,-,0.00,,Clear,80,2013-05-24 13:58:00
7:35 AM,44.6,39.2,81,29.95,10.0,South,6.9,-,N/A,,Clear,170,2013-05-24 14:35:00
7:58 AM,43.3,39.2,85,29.99,10.0,SSW,8.1,-,0.00,,Scattered Clouds,200,2013-05-24 14:58:00
8:00 AM,42.8,39.2,87,29.96,10.0,South,8.1,-,N/A,,Scattered Clouds,190,2013-05-24 15:00:00
8:03 AM,42.8,39.2,87,29.96,10.0,South,9.2,-,N/A,,Mostly Cloudy,190,2013-05-24 15:03:00
8:04 AM,42.8,39.2,87,29.96,10.0,South,9.2,-,N/A,,Mostly Cloudy,190,2013-05-24 15:04:00
8:14 AM,42.8,39.2,87,29.96,10.0,South,9.2,-,N/A,,Mostly Cloudy,190,2013-05-24 15:14:00
8:26 AM,42.8,39.2,87,29.97,10.0,South,8.1,-,N/A,,Overcast,170,2013-05-24 15:26:00
8:31 AM,42.8,39.2,87,29.97,10.0,South,9.2,-,N/A,,Overcast,170,2013-05-24 15:31:00
8:43 AM,41.0,39.2,93,29.97,10.0,South,9.2,-,N/A,,Overcast,190,2013-05-24 15:43:00
8:55 AM,41.0,41.0,100,29.97,10.0,South,9.2,-,N/A,,Overcast,190,2013-05-24 15:55:00
8:58 AM,41.7,40.3,95,30.01,10.0,South,12.7,-,0.00,,Overcast,190,2013-05-24 15:58:00
8:59 AM,41.0,41.0,100,29.97,10.0,South,11.5,-,N/A,,Overcast,190,2013-05-24 15:59:00
9:06 AM,42.8,41.0,93,29.97,10.0,South,11.5,-,N/A,,Overcast,180,2013-05-24 16:06:00
9:40 AM,42.8,41.0,93,29.97,10.0,South,10.4,-,N/A,,Overcast,170,2013-05-24 16:40:00
9:47 AM,42.8,41.0,93,29.97,10.0,South,10.4,-,N/A,,Overcast,180,2013-05-24 16:47:00
9:48 AM,42.8,41.0,93,29.97,10.0,South,11.5,-,N/A,,Overcast,190,2013-05-24 16:48:00
9:57 AM,44.6,41.0,87,29.97,10.0,South,10.4,-,N/A,,Overcast,180,2013-05-24 16:57:00
9:58 AM,43.9,41.2,90,30.01,10.0,South,10.4,-,0.00,,Overcast,190,2013-05-24 16:58:00
9:59 AM,44.6,41.0,87,29.97,10.0,South,10.4,-,N/A,,Overcast,190,2013-05-24 16:59:00
10:09 AM,42.8,41.0,93,29.97,10.0,South,9.2,-,N/A,,Overcast,190,2013-05-24 17:09:00
10:15 AM,42.8,41.0,93,29.97,10.0,SSW,10.4,-,N/A,,Light Drizzle,200,2013-05-24 17:15:00
10:22 AM,42.8,41.0,93,29.97,10.0,South,12.7,-,N/A,,Overcast,190,2013-05-24 17:22:00
10:23 AM,44.6,41.0,87,29.97,10.0,South,12.7,-,N/A,,Light Drizzle,190,2013-05-24 17:23:00
10:35 AM,44.6,41.0,87,29.97,10.0,SSW,10.4,-,N/A,,Light Drizzle,210,2013-05-24 17:35:00
10:36 AM,44.6,41.0,87,29.97,10.0,SSW,10.4,-,N/A,,Overcast,210,2013-05-24 17:36:00
10:51 AM,44.6,39.2,81,29.97,10.0,South,11.5,-,N/A,,Overcast,190,2013-05-24 17:51:00
10:58 AM,45.1,39.9,82,30.01,10.0,South,11.5,-,0.00,,Overcast,180,2013-05-24 17:58:00
11:01 AM,44.6,39.2,81,29.97,10.0,South,10.4,-,N/A,,Overcast,180,2013-05-24 18:01:00
11:36 AM,44.6,39.2,81,29.98,10.0,South,12.7,-,N/A,Rain,Light Rain,170,2013-05-24 18:36:00
11:38 AM,44.6,39.2,81,29.98,10.0,South,12.7,-,N/A,Rain,Light Rain,180,2013-05-24 18:38:00
11:42 AM,44.6,39.2,81,29.98,10.0,SSE,12.7,-,N/A,Rain,Light Rain,160,2013-05-24 18:42:00
11:52 AM,46.4,39.2,76,29.98,10.0,South,13.8,-,N/A,,Overcast,170,2013-05-24 18:52:00
11:58 AM,46.0,39.4,78,30.02,10.0,South,12.7,-,0.00,,Overcast,180,2013-05-24 18:58:00
12:08 PM,46.4,39.2,76,29.98,10.0,South,10.4,-,N/A,,Overcast,180,2013-05-24 19:08:00
12:20 PM,46.4,39.2,76,29.98,10.0,SSE,10.4,-,N/A,Rain,Light Rain,150,2013-05-24 19:20:00
12:37 PM,44.6,41.0,87,29.98,10.0,South,10.4,-,N/A,Rain,Light Rain,170,2013-05-24 19:37:00
12:42 PM,44.6,41.0,87,29.98,10.0,South,10.4,-,N/A,Rain,Light Rain,170,2013-05-24 19:42:00
12:43 PM,44.6,41.0,87,29.98,10.0,South,10.4,-,N/A,Rain,Light Rain,170,2013-05-24 19:43:00
12:45 PM,44.6,41.0,87,29.98,10.0,South,11.5,-,N/A,Rain,Light Rain,180,2013-05-24 19:45:00
12:46 PM,44.6,41.0,87,29.98,10.0,South,12.7,-,N/A,Rain,Light Rain,180,2013-05-24 19:46:00
12:54 PM,44.6,41.0,87,29.98,10.0,South,9.2,-,N/A,Rain,Light Rain,180,2013-05-24 19:54:00
12:55 PM,44.6,41.0,87,29.98,10.0,South,9.2,-,N/A,Rain,Light Rain,170,2013-05-24 19:55:00
12:58 PM,45.1,41.4,87,30.01,10.0,SSE,12.7,-,0.01,Rain,Light Rain,160,2013-05-24 19:58:00
1:04 PM,46.4,41.0,81,29.97,10.0,South,10.4,-,N/A,,Overcast,170,2013-05-24 20:04:00
1:22 PM,46.4,41.0,81,29.97,10.0,South,11.5,-,N/A,,Overcast,190,2013-05-24 20:22:00
1:24 PM,46.4,41.0,81,29.97,10.0,South,11.5,-,N/A,,Overcast,180,2013-05-24 20:24:00
1:25 PM,46.4,41.0,81,29.97,10.0,South,12.7,-,N/A,,Overcast,180,2013-05-24 20:25:00
1:42 PM,48.2,39.2,71,29.97,10.0,South,9.2,19.6,N/A,,Overcast,180,2013-05-24 20:42:00
1:58 PM,48.6,40.1,73,30.01,10.0,South,15.0,-,0.00,,Overcast,170,2013-05-24 20:58:00
2:29 PM,48.2,39.2,71,29.98,10.0,South,16.1,-,N/A,,Overcast,190,2013-05-24 21:29:00
2:30 PM,48.2,39.2,71,29.98,10.0,South,15.0,-,N/A,,Overcast,190,2013-05-24 21:30:00
2:33 PM,48.2,39.2,71,29.98,10.0,South,15.0,20.7,N/A,,Overcast,190,2013-05-24 21:33:00
2:36 PM,50.0,39.2,66,29.98,10.0,South,12.7,20.7,N/A,,Mostly Cloudy,190,2013-05-24 21:36:00
2:39 PM,50.0,39.2,66,29.98,10.0,South,11.5,20.7,N/A,,Mostly Cloudy,190,2013-05-24 21:39:00
2:40 PM,50.0,39.2,66,29.98,10.0,SSW,10.4,20.7,N/A,,Mostly Cloudy,200,2013-05-24 21:40:00
2:42 PM,50.0,39.2,66,29.98,10.0,SSW,12.7,20.7,N/A,,Mostly Cloudy,210,2013-05-24 21:42:00
2:53 PM,50.0,39.2,66,29.98,10.0,South,12.7,-,N/A,,Mostly Cloudy,190,2013-05-24 21:53:00
2:58 PM,50.9,39.0,64,30.00,10.0,South,15.0,-,N/A,,Mostly Cloudy,170,2013-05-24 21:58:00
2:59 PM,51.8,39.2,62,29.97,10.0,South,15.0,-,N/A,,Mostly Cloudy,170,2013-05-24 21:59:00
3:13 PM,51.8,39.2,62,29.97,10.0,SSW,12.7,20.7,N/A,,Light Drizzle,200,2013-05-24 22:13:00
3:14 PM,51.8,39.2,62,29.97,10.0,South,12.7,20.7,N/A,,Light Drizzle,190,2013-05-24 22:14:00
3:25 PM,53.6,39.2,58,29.97,10.0,SSW,12.7,-,N/A,,Mostly Cloudy,200,2013-05-24 22:25:00
3:27 PM,53.6,39.2,58,29.97,10.0,SSW,9.2,-,N/A,,Overcast,210,2013-05-24 22:27:00
3:28 PM,53.6,39.2,58,29.97,10.0,SSW,10.4,-,N/A,,Overcast,200,2013-05-24 22:28:00
3:30 PM,53.6,39.2,58,29.97,10.0,SSW,15.0,18.4,N/A,,Light Drizzle,200,2013-05-24 22:30:00
3:34 PM,53.6,39.2,58,29.97,10.0,SSW,15.0,18.4,N/A,,Mostly Cloudy,200,2013-05-24 22:34:00
3:41 PM,53.6,39.2,58,29.98,10.0,South,15.0,-,N/A,,Overcast,190,2013-05-24 22:41:00
3:51 PM,53.6,39.2,58,29.98,10.0,South,13.8,20.7,N/A,,Light Drizzle,190,2013-05-24 22:51:00
3:58 PM,53.1,38.8,59,30.02,10.0,SSW,12.7,-,0.00,,Light Drizzle,200,2013-05-24 22:58:00
4:03 PM,51.8,39.2,62,29.98,10.0,South,12.7,-,N/A,,Overcast,190,2013-05-24 23:03:00
4:21 PM,51.8,39.2,62,29.98,10.0,SSW,13.8,20.7,N/A,,Overcast,210,2013-05-24 23:21:00
4:29 PM,51.8,39.2,62,29.98,10.0,South,11.5,-,N/A,,Overcast,190,2013-05-24 23:29:00
4:37 PM,51.8,39.2,62,29.98,10.0,South,12.7,-,N/A,,Overcast,190,2013-05-24 23:37:00
4:44 PM,51.8,39.2,62,29.98,10.0,SSW,9.2,-,N/A,,Overcast,210,2013-05-24 23:44:00
4:51 PM,51.8,39.2,62,29.98,10.0,South,10.4,-,N/A,,Overcast,180,2013-05-24 23:51:00
4:58 PM,51.1,39.6,65,30.02,10.0,South,11.5,-,0.00,,Overcast,180,2013-05-24 23:58:00
5:07 PM,50.0,41.0,71,29.98,10.0,South,11.5,-,N/A,,Overcast,180,2013-05-25 00:07:00
5:58 PM,49.1,40.8,73,30.03,10.0,SSE,8.1,-,N/A,,Overcast,150,2013-05-25 00:58:00
6:01 PM,48.2,42.8,82,29.99,8.0,SE,8.1,-,N/A,,Overcast,140,2013-05-25 01:01:00
6:05 PM,48.2,42.8,82,29.99,6.0,SE,6.9,-,N/A,Rain,Light Rain,140,2013-05-25 01:05:00
6:26 PM,46.4,42.8,87,29.99,9.0,South,8.1,-,N/A,Rain,Light Rain,170,2013-05-25 01:26:00
6:29 PM,46.4,42.8,87,29.99,7.0,South,8.1,-,N/A,Rain,Light Rain,180,2013-05-25 01:29:00
6:30 PM,48.2,42.8,82,29.99,7.0,South,6.9,-,N/A,Rain,Light Rain,180,2013-05-25 01:30:00
6:37 PM,48.2,42.8,82,29.99,3.0,South,9.2,-,N/A,Rain,Light Rain,190,2013-05-25 01:37:00
6:40 PM,50.0,42.8,76,29.99,3.0,South,6.9,-,N/A,Rain,Light Rain,180,2013-05-25 01:40:00
6:42 PM,50.0,42.8,76,29.99,4.0,SSE,5.8,-,N/A,Rain,Light Rain,160,2013-05-25 01:42:00
6:57 PM,48.2,42.8,82,29.99,10.0,SE,5.8,-,N/A,,Overcast,140,2013-05-25 01:57:00
6:58 PM,48.6,43.5,83,30.03,10.0,SE,5.8,-,0.02,,Overcast,140,2013-05-25 01:58:00
7:18 PM,48.2,42.8,82,29.99,10.0,South,8.1,-,N/A,Rain,Light Rain,170,2013-05-25 02:18:00
7:36 PM,48.2,44.6,87,29.99,10.0,SSE,3.5,-,N/A,,Scattered Clouds,160,2013-05-25 02:36:00
7:58 PM,47.5,44.1,88,30.02,10.0,ESE,2.3,-,0.00,,Mostly Cloudy,120,2013-05-25 02:58:00
8:58 PM,45.9,43.0,90,30.03,10.0,East,4.6,-,N/A,,Scattered Clouds,100,2013-05-25 03:58:00
9:58 PM,43.7,42.6,96,30.04,10.0,SSE,4.6,-,N/A,,Mostly Cloudy,150,2013-05-25 04:58:00
10:14 PM,44.6,42.8,93,30.00,10.0,SE,6.9,-,N/A,,Overcast,140,2013-05-25 05:14:00
10:25 PM,42.8,41.0,93,30.00,10.0,SE,6.9,-,N/A,,Mostly Cloudy,140,2013-05-25 05:25:00
10:39 PM,42.8,41.0,93,30.00,10.0,SSE,8.1,-,N/A,,Scattered Clouds,150,2013-05-25 05:39:00
10:53 PM,42.8,41.0,93,30.00,10.0,SSE,8.1,-,N/A,,Scattered Clouds,150,2013-05-25 05:53:00
10:58 PM,42.1,40.5,94,30.04,10.0,SE,8.1,-,0.00,,Scattered Clouds,140,2013-05-25 05:58:00
11:58 PM,43.0,41.4,94,30.03,10.0,SSE,3.5,-,N/A,,Scattered Clouds,160,2013-05-25 06:58:00